Showing default

COSMOS 2479, 38101

Orbit data source: Space-Track

COSMOS 2479, 38101 is a payload satellite owned by PVO (CIS) in GEO that was launched on Fri, 30 Mar 2012 UTC via a PROTON-K/DM-2 launch vehicle from the Tyuratam Missile And Space Complex (TTMTR). Payload-class satellites include a variety of spacecraft equipped with specific instruments for various scientific and technological missions. These include communications satellites like Starlink; space stations such as the ISS; scientific satellites like the Hubble; Earth observation satellites from companies like Planet Labs, Umbra, and HawkEye 360; GPS; miniature CubeSats for education and research; and military/defense satellites.

Not visible in the next 10 days
Identifier
38101, 2012-012A
Orbit
GEO
Country
Flag of CISCIS
Related business
Manufacturer
NPOL/KOMET
Mission
Non-operational Defense Early Warn
Bus & Motor
PROGNOZ, Unknown motor
Mass
2,580 kg wet, ~2,200 kg dry
Launch date (UTC)
2012-03-30 (14 years ago)
Launch vehicle
PROTON-K/DM-2
Launch site
Tyuratam Missile And Space Complex (TTMTR)
Object type
Payload
Rocket body
Debris
Shape & HBR
Step Cyl + 2 Pan, 5.0 m
Radar Cross Section
12.911 m², Large (>1 m²)

Expand to show TLE details & history
Last TLE update: 1 day ago

TLE from 1 day ago
0 COSMOS 2479
1 38101U 12012A   25306.06850181 -.00000053  00000-0  00000-0 0  9993
2 38101   8.3260  58.5644 0005920 214.4592 144.5877  1.00314803 49806
Epoch: 2025-11-02T01:38Z
TLE epoch observation values (Epoch: 2025-11-02T01:38:38.556Z)
Latitude
-0.12802°
Longitude
-8.62708°
Altitude
35,794.414 km
Speed
3.074 km/s
True Right ascension
03h 50m 29s
True Declination
0° 07' 40"
Sunlit
Object was in daylight at epoch
Visualization orbit readout
Latitude
Unknown
Longitude
Unknown
Altitude
Unknown
Speed
Unknown
Apparent Right ascension
Unknown
Apparent Declination
Unknown
Sunlit
N/A
Visualization observer readout
Local Sidereal Time
21:19:10
Azimuth
Unknown
Elevation
Unknown
Doppler factor
Unknown
Orbital elements
Apogee altitude
35,800.533 km
Perigee altitude
35,750.623 km
Semi-major axis
42,153.715 km
Eccentricity
0.00059
Inclination
8.326°
RAAN
58.5644°
Arg. of periapsis
214.4592°
True anomaly
144.62699°
Mean anomaly
144.5877°
Eccentric anomaly
144.60735°
Mean motion
0.25078 °/min
Orbital period
1,435.53 mins
BSTAR
0
Loading maneuver chart data...
Computing Atmospheric mass density...
Loading historical data...
Loading historical data...
Loading historical data...
Loading historical data...
Loading historical data...
Loading historical data...
Loading historical data...

Documentation

Showing up to 5 results
|